OBJECT C, 61240

Orbit data source: Space-Track

You're viewing an Uncataloged Satellite

Recently launched and/or uncataloged satellites may have evolving metadata. Metadata may include but not limited to: Owner, Maufacturer, Bus, Motor, and Mission.

OBJECT C, 61240 is a Chinese satellite in SSO that was launched on Tue, 24 Sep 2024 UTC via a LIJIAN-1 launch vehicle from the Jiuquan Satellite Launch Center, China (JSC). Unknown objects in Earth's orbit typically refer to objects detected orbiting the Earth but have not yet been identified or cataloged. These objects could be anything from previously untracked satellites, spent rocket stages, debris from satellite collisions, or even natural meteoroids temporarily captured by Earth's gravity.

Loading next visibility...
Identifier
61240, 2024-174C
Orbit
SSO
Country
Flag of CNCN / PRC
Related business
None
Manufacturer
Unknown
Mission
Operational Commercial Radar Imaging
Bus & Motor
Unknown
Mass
Unknown
Launch date (UTC)
2024-09-24 (2 years ago)
Launch vehicle
LIJIAN-1
Launch site
Jiuquan Satellite Launch Center, China (JSC)
Object type
Unknown
Shape & HBR
Box + 2 Pan, 0.8 m
Radar Cross Section
0.514 m², Large (>1 m²)

Expand to show TLE details & history
Last TLE update: 4 hours ago

TLE from 4 hours ago
0 OBJECT C
1 61240U 24174C   26095.53552633  .00004815  00000-0  23417-3 0  9993
2 61240  97.4456 104.5629 0005258 146.6676 213.4890 15.18866864 84656
Epoch: 2026-04-05T12:51Z
TLE epoch observation values (Epoch: 2026-04-05T12:51:09.474Z)
Latitude
-0.00009°
Longitude
77.93388°
Altitude
515.373 km
Speed
7.604 km/s
True Right ascension
06h 58m 15s
True Declination
0° 00' 00"
Sunlit
Object was in daylight at epoch
Visualization orbit readout
Latitude
Unknown
Longitude
Unknown
Altitude
Unknown
Speed
Unknown
Apparent Right ascension
Unknown
Apparent Declination
Unknown
Sunlit
N/A
Visualization observer readout
Local Sidereal Time
23:15:44
Azimuth
Unknown
Elevation
Unknown
Doppler factor
Unknown
Orbital elements
Apogee altitude
509.853 km
Perigee altitude
502.613 km
Semi-major axis
6,884.37 km
Eccentricity
0.00053
Inclination
97.4456°
RAAN
104.5629°
Arg. of periapsis
146.6676°
True anomaly
213.45577°
Mean anomaly
213.489°
Eccentric anomaly
213.47238°
Mean motion
3.79968 °/min
Orbital period
94.74 mins
BSTAR
0.00023417
Loading maneuver chart data...
Computing Atmospheric mass density...
Loading historical data...
Loading historical data...
Loading historical data...
Loading historical data...
Loading historical data...
Loading historical data...
Loading historical data...

Documentation

Showing up to 5 results
|